Lid_Strength_Index
4 5 5 5 6 7 7 7 7 7 7 7 7 7 7 7 7 8 10 9 11 13 13 12 12 14 14 15 17 15 16 15 16 18 18 17 17 15 16 15 15 15 17 16 16 17 18 10 10 13 11 9 9 9
5 5 6 6 7 7 7 7 7 6 7 7 7 7 6 6 6 8 11 9 9 13 13 11 11 11 11 11 13 14 15 14 14 17 16 15 16 16 17 20 14 16 14 14 13 14 9 9 10 9 9 9 9 9
5 6 6 7 7 7 7 7 7 7 6 7 7 7 7 7 8 9 11 10 11 14 14 15 14 12 10 10 10 14 14 12 13 12 13 15 18 16 20 19 17 15 13 13 13 11 10 10 9 8 9 9 9 9
6 6 6 7 7 8 7 7 6 7 7 7 8 8 8 8 8 9 11 10 11 14 19 17 12 14 11 11 10 11 11 11 10 12 14 15 16 14 18 16 16 14 14 15 15 14 12 11 11 12 11 11 11 11
6 7 8 8 7 7 6 6 7 7 7 7 8 8 9 9 9 9 10 10 10 15 18 17 14 13 12 12 12 11 11 12 13 15 16 17 15 15 15 15 16 14 15 16 17 13 13 13 10 10 12 12 11 11
7 7 7 6 7 7 7 7 7 7 7 8 8 9 9 9 9 11 14 11 10 11 16 20 13 14 13 12 12 12 12 12 13 15 16 14 12 15 18 18 14 14 13 12 13 11 12 11 10 9 11 11 11 11
6 5 5 6 6 6 5 7 7 8 8 8 8 8 9 9 9 13 14 11 9 10 15 20 18 14 13 12 12 12 11 12 13 13 15 15 14 13 15 17 13 11 11 10 10 10 12 10 11 9 9 10 9 10
5 5 5 5 5 6 7 7 7 8 8 8 8 9 8 8 9 12 10 8 8 12 13 20 20 16 13 15 15 12 14 12 12 14 13 15 12 12 16 13 11 10 10 10 10 9 10 9 9 9 8 9 10 10
5 5 5 5 6 6 7 7 8 8 8 8 8 8 10 11 13 12 8 8 8 11 18 17 20 21 13 14 13 13 12 15 12 14 14 12 13 16 13 12 12 11 12 12 11 11 11 11 10 10 9 9 10 10
5 5 5 5 6 6 7 7 7 8 8 8 10 13 14 12 8 9 11 14 13 14 14 18 15 19 14 15 15 15 12 13 15 13 11 14 13 11 11 11 11 12 12 12 14 14 13 13 12 12 11 10 10 10
5 6 6 6 7 7 7 7 7 8 9 11 13 14 11 9 11 13 20 20 19 18 15 14 15 18 12 16 15 13 15 15 18 13 13 14 13 13 12 12 12 12 13 13 13 12 12 12 12 12 12 11 10 9
6 5 6 6 7 7 7 7 7 9 11 11 11 10 11 14 18 21 23 18 20 19 14 14 16 15 15 11 14 15 17 15 19 10 12 15 14 13 13 14 14 14 14 13 13 13 12 12 12 13 13 13 11 10
5 5 6 6 6 6 6 6 7 8 9 11 14 18 19 20 22 25 27 23 18 15 15 16 18 17 15 12 14 15 18 18 13 13 14 14 14 14 14 14 14 14 14 13 13 13 12 12 12 12 12 12 11 10
5 5 5 6 6 6 6 6 7 8 11 17 22 26 23 26 23 20 17 17 15 15 17 17 15 18 13 14 15 18 15 14 16 15 16 14 14 14 14 14 15 16 15 14 14 14 13 13 13 12 12 10 10 10
5 5 5 6 6 6 6 6 7 9 13 19 20 26 25 18 17 14 18 17 16 16 16 17 18 15 15 16 14 14 15 14 15 17 14 13 14 14 15 15 15 16 16 15 14 15 13 13 13 13 13 12 11 11
5 5 7 6 6 6 6 7 9 10 15 19 20 22 18 20 20 19 19 18 15 13 17 15 17 18 19 15 14 14 15 18 16 15 13 14 15 15 15 15 15 15 15 15 15 15 14 13 13 13 13 13 12 12
6 9 5 5 5 6 7 10 11 16 18 20 21 16 17 18 19 18 15 14 11 16 20 17 20 20 15 15 14 15 15 14 13 13 13 14 15 15 15 15 15 15 15 15 16 15 15 13 13 14 14 14 13 13
8 6 5 5 7 9 12 12 17 19 22 20 20 18 16 16 14 13 12 12 15 16 16 19 14 19 18 18 18 15 13 13 12 12 13 14 15 15 15 16 15 15 16 16 15 15 15 15 15 15 14 14 14 14
6 5 5 5 7 11 16 18 17 22 20 16 15 15 13 12 11 12 14 14 14 13 15 16 18 17 16 15 16 15 15 14 15 13 13 14 15 15 15 15 16 16 16 16 15 16 16 16 16 15 15 14 15 15
4 5 6 7 8 15 19 20 18 17 20 17 14 14 13 12 13 14 15 14 12 14 18 18 19 18 17 15 14 14 14 13 14 13 14 15 15 15 16 16 16 16 17 16 16 14 16 17 16 15 15 15 16 16
7 9 8 10 15 16 19 21 18 15 15 18 17 17 15 16 13 12 15 13 15 19 19 18 17 16 15 15 14 14 14 14 14 15 15 16 16 16 17 16 16 17 18 18 18 17 16 17 17 16 16 16 16 16
10 8 12 12 18 20 21 20 20 18 19 19 19 19 20 19 13 16 14 17 20 19 18 17 16 14 14 15 15 15 14 14 14 15 15 16 18 18 18 18 17 18 18 18 18 19 18 17 16 17 17 17 16 15
9 11 16 17 19 20 22 19 20 21 21 21 21 21 21 20 17 17 18 17 17 15 15 14 13 14 14 14 15 15 15 16 17 17 17 17 17 17 18 18 18 19 19 19 18 18 19 16 17 18 18 18 18 18
11 18 20 20 19 22 21 23 20 20 21 21 22 22 22 21 20 18 19 17 15 14 14 14 13 14 14 15 16 17 16 15 16 17 18 17 18 19 19 19 19 19 19 18 18 18 19 19 17 18 18 20 20 20
15 19 19 22 23 22 22 22 23 21 23 24 24 23 23 23 23 21 19 18 15 15 15 14 14 14 15 15 15 16 16 16 17 19 19 18 18 18 18 19 19 19 18 20 20 19 19 19 19 20 20 19 22 23
20 22 20 21 21 20 20 23 24 23 23 25 24 23 24 24 26 26 20 20 17 16 16 16 16 15 16 16 16 16 17 16 16 18 18 18 19 19 20 21 21 20 18 19 20 20 20 19 20 21 21 22 18 23
22 22 18 12 14 16 18 18 18 21 25 25 23 24 24 27 27 22 18 19 17 16 16 16 16 16 16 16 15 15 16 17 17 18 17 17 18 18 19 21 22 20 18 19 19 18 19 19 20 20 21 22 23 24
19 18 21 21 20 19 22 22 24 25 23 19 20 25 26 24 23 20 19 19 19 19 17 16 16 16 16 16 16 16 16 17 18 19 18 18 19 19 19 19 18 16 18 19 17 18 19 20 21 23 25 25 25 25
19 16 18 25 24 22 23 23 22 18 16 18 21 21 22 20 20 20 17 17 18 20 19 17 17 17 17 16 17 18 18 18 18 20 20 20 20 19 18 20 21 21 21 22 17 15 16 18 19 24 26 26 25 26
20 18 21 25 24 24 22 20 21 20 16 17 16 18 18 19 20 18 18 19 19 20 21 20 18 18 18 19 19 18 18 19 19 19 21 21 20 18 19 20 21 22 22 23 23 24 17 22 22 25 25 25 25 26
17 20 22 21 23 22 21 20 20 15 19 22 21 21 21 20 17 17 19 19 20 21 21 19 19 20 20 20 20 20 19 17 18 18 17 19 19 20 20 20 21 22 23 24 24 24 26 25 27 27 27 27 26 24
20 24 23 24 24 20 20 21 21 21 23 22 22 22 20 21 23 21 20 21 21 21 17 18 19 19 20 20 20 20 15 19 18 17 15 16 18 18 20 21 22 23 23 23 24 25 27 28 27 26 25 26 26 26
25 26 26 25 25 23 21 20 20 22 22 22 21 20 21 20 23 22 21 20 20 20 19 18 18 18 20 20 20 19 17 20 18 11 9 9 9 11 17 20 20 22 23 23 24 25 25 27 27 28 27 28 27 27